This demonstration page uses our WeatherBlox Daily Observations layout. Learn more.

39.01783, -85.05884

Hourly Observations for August 17, 2019

Temp ( °F °C ) Dew Point ( °F °C ) Humidity (%) Winds ( mph kmh ) Pressure ( in mb ) Visibility ( mi km ) Precip ( " mm )
12:52 am 00:52 Mostly Cloudy 74 23.3 64 17.8 71 71 SW 3 6 29.91 1013 10 16.09344 0 0
1:52 am 01:52 Mostly Clear 70 21.1 64 17.8 82 82 S 5 7 29.94 1014 10 16.09344 0 0
2:52 am 02:52 Mostly Clear 70 21.1 64 17.8 82 82 SSW 5 7 29.91 1013 10 16.09344 0 0
3:52 am 03:52 Partly Cloudy 72 22.2 65 18.3 79 79 SW 3 6 29.91 1013 10 16.09344 0 0
4:52 am 04:52 Mostly Clear 66 18.9 63 17.2 90 90 S 7 11 29.91 1013 8 12.874752 0 0
5:52 am 05:52 Mostly Clear 69 20.6 65 18.3 87 87 Calm 29.88 1012 10 16.09344 0 0
6:52 am 06:52 Mostly Cloudy 68 20 65 18.3 90 90 SSW 3 6 29.94 1014 10 16.09344 0 0
7:52 am 07:52 Mostly Cloudy 69 20.6 66 18.9 90 90 S 3 6 29.97 1015 10 16.09344 0 0
8:52 am 08:52 Mostly Cloudy 73 22.8 67 19.4 81 81 Calm 29.97 1015 10 16.09344 0 0
9:52 am 09:52 Mostly Cloudy 77 25 68 20 74 74 SSW 5 7 29.97 1015 10 16.09344 0 0
10:52 am 10:52 Mostly Cloudy 81 27.2 67 19.4 62 62 NW 5 7 29.97 1015 10 16.09344 0 0
12:52 pm 12:52 Mostly Cloudy 86 30 67 19.4 53 53 W 5 7 29.97 1015 10 16.09344 0 0
1:52 pm 13:52 Mostly Cloudy 87 30.6 65 18.3 48 48 WSW 6 9 29.97 1015 10 16.09344 0 0
2:39 pm 14:39 Mostly Cloudy with Nearby Thunderstorms 86 30 65 18.3 49 49 SW 6 9 29.94 1014 10 16.09344 0 0
2:52 pm 14:52 Mostly Cloudy with Light Rain 84 28.9 66 18.9 55 55 VRB 6 9 29.97 1015 7 11.265408 0.001 0.001
3:01 pm 15:01 Cloudy with Nearby Thunderstorms 81 27.2 69 20.6 67 67 VRB 6 9 29.94 1014 10 16.09344 0.001 0.001
3:26 pm 15:26 Mostly Cloudy 83 28.3 69 20.6 63 63 SSE 10 17 29.91 1013 10 16.09344 0.001 0.001
3:52 pm 15:52 Mostly Cloudy 84 28.9 69 20.6 61 61 SSE 8 13 29.94 1014 10 16.09344 0.001 0.001
4:52 pm 16:52 Cloudy 83 28.3 68 20 61 61 E 10 17 29.91 1013 10 16.09344 0 0
5:52 pm 17:52 Mostly Cloudy 86 30 68 20 55 55 ESE 6 9 29.91 1013 10 16.09344 0 0
6:52 pm 18:52 Mostly Cloudy 86 30 68 20 55 55 S 7 11 29.91 1013 10 16.09344 0 0
7:52 pm 19:52 Mostly Cloudy 85 29.4 68 20 57 57 SSE 7 11 29.88 1012 10 16.09344 0 0
8:52 pm 20:52 Mostly Cloudy 80 26.7 68 20 67 67 S 6 9 29.88 1012 10 16.09344 0 0
9:52 pm 21:52 Mostly Clear 81 27.2 67 19.4 62 62 S 9 15 29.88 1012 10 16.09344 0 0
10:52 pm 22:52 Mostly Clear 79 26.1 67 19.4 67 67 S 6 9 29.91 1013 10 16.09344 0 0
11:52 pm 23:52 Partly Cloudy 77 25 68 20 74 74 S 6 9 29.91 1013 10 16.09344 0 0

Powered by AerisWeather